ARIANE 5 R/B, 32769

Orbit data source: Space-Track

ARIANE 5 R/B, 32769 is space debris in HEO originally from a launch on Fri, 18 Apr 2008 UTC launched from the French Guiana (FRGUI). Debris objects in space refer to the collection of defunct objects orbiting the Earth. Examples of debris include non-operational satellites, rocket bodies, and fragments generated from explosions, collisions, or faulty payload assembly.

Loading next visibility...
Identifier
32769, 2008-018C
Orbit
HEO
Last TLE update
20 hours ago
Origin
Manufacturer
EADS/LV
Mission
Spacecraft
Bus & Motor
ESC-A, Unknown motor
Mass
~5,000 kg wet, ~5,000 kg dry
Launch date (UTC)
2008-04-18 (17 years ago)
Launch vehicle
Unknown
Launch site
French Guiana (FRGUI)
Object type
Payload
Rocket body
Debris
Shape & HBR
Cyl + 1 Nozzle, 7 m
Radar Cross Section
41.627 m², Large (>1 m²)

Expand to show TLE details & history

TLE from 20 hours ago
0 ARIANE 5 R/B
1 32769U 08018C   25132.66544654  .00002028  00000-0  69463-3 0  9990
2 32769   1.7979 352.9512 6927128 193.1226 129.0787  2.72475388155559
Epoch: 2025-05-12T15:58Z
Definitive object data (Epoch: 2025-05-12T15:58:14.581Z)
Latitude
-0°
Longitude
-117.45911°
Altitude
28,156.706 km
Speed
2.162 km/s
True Right ascension
23h 31m 06s
True Declination
0° 00' 00"
Sunlit
Object was in daylight at TLE epoch
Visualization TLE readout
Latitude
0.69699°
Longitude
-95.17209°
Altitude
29,383.448 km
Speed
1.971 km/s
Apparent Right ascension
01h 31m 25s
Apparent Declination
-5° 58' 41"
Sunlit
Object is in daylight
Visualization observer readout
Local Sidereal Time
20:04:27
Azimuth
99.886° ESE
Elevation
2.449°
Doppler factor
1
Orbital elements
Apogee altitude
30,283.27 km
Perigee altitude
277.204 km
Semi-major axis
21,658.374 km
Eccentricity
0.6927128
Inclination
1.7979°
RAAN
352.9512°
Arg. of periapsis
193.1226°
True anomaly
166.66995°
Mean anomaly
129.0787°
Eccentric anomaly
149.32626°
Mean motion
0.68093 °/min
BSTAR
0.00069463
Orbital period
528.69 mins
Loading maneuver chart data...
Loading SW <> Apogee altitude chart data...
Loading historical data...
Loading historical data...
Loading historical data...
Loading historical data...
Loading historical data...
Loading historical data...
Loading historical data...
Other satellites on launch #18 in the year 2008 (2008-04-18 UTC)

ARIANE 5 R/B Visibility forecast

Observer location: undefined°, undefined°

Span
Click to sort rows by Start time (UTC) header in descending order
Start Az.
Max El. time (UTC)
Max El. Az.
Max El.
End time (UTC)
End Az.
315 mins2025-05-13 16:29:59.396Z243.282° WSW2025-05-13 18:04:59.396Z240.184° WSW19.127°2025-05-13 21:44:59.396Z251.912° W
39 mins2025-05-13 23:02:59.396Z244.615° WSW2025-05-13 23:32:59.396Z223.616° SW12.356°2025-05-13 23:41:59.396Z204.657° SW
145 mins2025-05-14 09:13:59.396Z172.411° S2025-05-14 11:38:59.396Z120.721° SE19.683°2025-05-14 11:38:59.396Z120.721° SE
|